sat.trackr.live / text

‹ back to catalog

STARLINK-31733

NORAD 59486 · 2024-071C

PAYLOAD ACTIVE UNKNOWN

§ Identity

Operator
Country
US
Launch date
2024-04-13
Launch site
AFETR
Launch vehicle
Mass (kg)
RCS (m²)

Purposes: comms

External: N2YO · Heavens-Above · Gunter

§ Orbital elements

Epoch: 2026-05-24T16:44:24.595296Z

Period
94.27 min
Inclination
43.0020°
Eccentricity
0.0001160
Mean motion
15.27575142 rev/d
Perigee alt
482.3 km
Apogee alt
483.9 km
Semi-major
6,861.2 km
B*
-3.1641e-5
RAAN
270.1798°
Arg perigee
287.0593°
Mean anomaly
73.0132°
Rev number
11,983

§ Raw data

STARLINK-317331 59486U 24071C   26144.69750689 -.00001132  00000+0 -31641-4 0  99902 59486  43.0020 270.1798 0001160 287.0593  73.0132 15.27575142119836

JSON: /api/v1/satellites/59486 · /tle

For live sub-satellite position, see the globe view (requires WebGL).

§ Visibility from observer

Set your observer location to see the next 7 days of passes ≥ 10°. The values pass through the URL so the page stays shareable.

No JS? Fill the form by hand. The geolocation button needs JavaScript.